119  
FPUS83 KFGF 260410  
OPUFGF  
PRAIRIE TO PINES WEATHER ROUNDUP  
NATIONAL WEATHER SERVICE EASTERN NORTH DAKOTA/GRAND FORKS ND  
1100 PM CDT FRI MAY 25 2018  
 
**SATELLITE DATA USED TO AUGMENT SKY COVER AT AUTOMATED STATIONS**  
***** WEATHER ACROSS EASTERN NORTH DAKOTA *****  
 
CITY SKY/WX TMP DP RH WIND PRES REMARKS  
GRAND FORKS FAIR 70 48 45 W7 29.58R  
GRND FORKS AFB FAIR 73 47 38 NW7 29.60R  
GRND FORKS NWS N/A 80 49 34 NW3 29.55R  
BUXTON N/A 71 57 61 W10 N/A  
DEVILS LAKE FAIR 68 53 58 W9 29.65R  
FARGO FAIR 75 52 44 W8 29.60R  
WAHPETON ARPT FAIR 77 43 29 SW10 29.64S  

 
 
***** WEATHER ACROSS CENTRAL AND WESTERN NORTH DAKOTA *****  
 
CITY SKY/WX TMP DP RH WIND PRES REMARKS  
JAMESTOWN FAIR 70 54 56 W7 29.66S  
BISMARCK FAIR 71 52 50 W5 29.72R  
MINOT FAIR 76 43 30 W12 29.67R  
MINOT AFB FAIR 65 41 41 W9 29.65R  
GARRISON N/A 73 46 38 W9 29.70S  
WILLISTON FAIR 69 51 52 W9 29.73R  
DICKINSON FAIR 61 49 64 W8 29.78R  
HETTINGER FAIR 59 49 69 NW3 29.84R  

 
 
***** OTHER OBSERVATIONS NORTHEAST NORTH DAKOTA *****  
 
CITY SKY/WX TMP DP RH WIND PRES REMARKS  
WALHALLA FAIR 68 57 68 NW5 29.60R  
LANGDON FAIR 66 55 68 N5 29.64S  
CAVALIER N/A 72 55 56 N7 29.59R  
GRAFTON FAIR 73 55 53 N7 29.60R  
CANDO FAIR 66 46 48 NW7 29.66R  
FORT TOTTEN N/A 70 49 48 NW2 29.95S  
ROLLA FAIR 64 48 55 N6 29.66S  
RUGBY NOT AVBL  
***** THE ABOVE OBSERVATIONS ARE NON NWS ARE NOT QUALITY  
CONTROLLED AND MAY MIS-REPORT RAIN FOR SNOW...  

 
 
***** OTHER OBSERVATIONS SOUTHEAST NORTH DAKOTA *****  
 
CITY SKY/WX TMP DP RH WIND PRES REMARKS  
COOPERSTOWN FAIR 66 54 63 W8 29.65S  
VALLEY CITY FAIR 72 54 53 W10 29.67R  
OAKES N/A 73 57 56 SW9 29.68S  
GWINNER N/A 73 52 46 W9 29.66S  
SHEYENNE NWR N/A 69 52 53 W6 29.95S  
BUFFALO N/A 75 44 33 W9 N/A  
WYNDMERE NOT AVBL  
***** THE ABOVE OBSERVATIONS ARE NON NWS ARE NOT QUALITY  
CONTROLLED AND MAY MIS-REPORT RAIN FOR SNOW...  

 
 
***** WEATHER ACROSS NORTHERN MINNESOTA *****  
 
CITY SKY/WX TMP DP RH WIND PRES REMARKS  
FLAG ISLAND FAIR 64 57 77 E10 29.56F  
WARROAD FAIR 66 61 82 S5 29.58S  
ROSEAU FAIR 64 59 82 S3 29.58S  
HALLOCK FAIR 72 55 56 N6 29.57S  
THF RVR FALLS FAIR 72 57 59 SW3 29.60R  
HALSTAD N/A 73 54 50 W8 N/A  
FOSSTON FAIR 68 52 56 S5 29.62R  
BAUDETTE N/A N/A N/A N/A MISG 29.58F  
WASKISH FAIR 70 55 60 CALM 29.59F  
CROOKSTON FAIR 70 55 60 W8 29.59R  

 
***** WEATHER ACROSS CENTRAL AND WEST MINNESOTA *****  
 
CITY SKY/WX TMP DP RH WIND PRES REMARKS  
BEMIDJI FAIR 66 53 63 SE3 29.62F  
PARK RAPIDS FAIR 72 55 55 CALM 29.64S  
WADENA FAIR 66 57 72 CALM 29.65F  
DETROIT LAKES FAIR 72 55 56 CALM 29.65S  
MOORHEAD FAIR 79 46 31 SW6 29.61S  
FERGUS FALLS FAIR 73 52 46 S5 29.60S  
ELBOW LAKE FAIR 74 48 39 W6 29.67S  
MORRIS MN FAIR 72 52 49 W7 29.67S  
STAPLES FAIR 66 55 68 S5 29.66S  
WHEATON FAIR 73 55 53 SW7 29.67F  

 
***** WEATHER ELSEWHERE ACROSS MINNESOTA *****  
 
CITY SKY/WX TMP DP RH WIND PRES REMARKS  
DULUTH FAIR 70 60 70 CALM 29.66R  
INTRNTL FALLS MOCLDY 68 60 75 N5 29.60S  
ELY FAIR 66 55 68 CALM 29.63F  
CLOQUET FAIR 66 59 77 SW5 29.66S  
BRAINERD FAIR 68 55 63 S5 29.65F  
HIBBING FAIR 58 54 86 CALM 29.64S  
ALEXANDRIA FAIR 72 61 68 SW5 29.69R  
SAINT CLOUD FAIR 68 59 73 S3 29.68R  
MINNEAPOLIS FAIR 74 60 61 S7 29.71R  

 
 
***** WEATHER ACROSS SOUTH DAKOTA *****  
 
CITY SKY/WX TMP DP RH WIND PRES REMARKS  
SIOUX FALLS FAIR 68 61 78 CALM 29.75R  
BROOKINGS FAIR 72 55 55 SW3 29.75R  
WATERTOWN FAIR 69 56 62 W6 29.73R  
HURON FAIR 73 58 59 W6 29.73R  
SISSETON N/A 75 52 44 W9 29.66S  
ABERDEEN FAIR 66 53 63 SW7 29.71R  
MITCHELL FAIR 73 58 59 W7 29.75R  
PIERRE FAIR 69 60 73 W6 29.77R  
MOBRIDGE FAIR 69 57 65 NW6 29.73R  
RAPID CITY FAIR 62 56 80 NE3 29.88S  

 
 
***** SOME WEATHER IN NEARBY STATES *****  
 
CITY SKY/WX TMP DP RH WIND PRES REMARKS  
GLASGOW MT FAIR 75 45 34 W5 29.75R  
GREAT FALLS MT TSTM 68 52 56 SW17G29 29.81R  
CHEYENNE WY FAIR 67 43 41 S5 30.07R  
SCOTTSBLUFF NE FAIR 69 58 67 E9 29.93R  
OMAHA NE FAIR 75 66 73 NW3 29.73S  
DES MOINES IA FAIR 78 65 63 S9 29.75R  
DAVENPORT IA RAIN 64 62 93 NE9 29.87R FOG  
CHICAGO IL CLOUDY 77 64 64 SW10 29.79R  
EAU CLAIRE WI FAIR 64 61 90 SW6 29.71R  
LA CROSSE WI LGT RAIN 69 62 78 W10G23 29.71F  

 
 
***** SOME NATIONAL WEATHER *****  
 
CITY SKY/WX TMP DP RH WIND PRES REMARKS  
LA GUARDIA NY FAIR 79 60 52 SW13 29.83F  
RALEIGH NC FAIR 73 69 87 SW8 30.02R  
ATLANTA GA CLOUDY 72 69 90 SE6 30.00S  
NEW ORLEANS LA FAIR 77 72 84 CALM 29.94R  
OKLAHOMA CITY FAIR 72 63 73 S9 29.87R  
ALBUQUERQUE NM FAIR 75 12 9 SE10 30.03R  
SALT LAKE CITY FAIR 79 38 22 CALM 29.81R  
LOS ANGELES CA FAIR 62 49 62 W22G30 30.05R  
BOISE ID FAIR 62 51 67 NW14 29.83R  
SEATTLE WA CLOUDY 62 43 49 NW3 30.03R  

 
 
*** WEATHER ACROSS MANITOBA...SASKATCHEWAN AND ONTARIO ***  
***ONTARIO***  
 
CITY SKY/WX TMP DP RH WIND PRES REMARKS  
GERALDTON TSTM 57 55 94 NE7 29.72R VSB 3/4  
THUNDER BAY PTCLDY 52 50 93 E6 29.60S  
SIOUX LOOKOUT MOCLDY 59 59 100 NE3 29.61R  
TORONTO CLEAR 73 46 38 SW13G20 29.76S  
BIG TROUT LK CLEAR 48 39 71 E10G20 29.82R  
PICKLE LAKE NOT AVBL  
DRYDEN MOCLDY 68 55 64 W18G29 29.65R  
KENORA MOCLDY 61 59 94 S8 29.59S  

 
*** MANITOBA***  
 
CITY SKY/WX TMP DP RH WIND PRES REMARKS  
BRANDON PTCLDY 66 59 77 NW9 29.61S  
DAUPHIN LGT RAIN 63 61 94 E5 29.58S  
ISLAND LAKE CLOUDY 55 46 71 E13 29.71F  
PILOT MOUND N/A 63 54 72 S3 N/A  
THE PAS LGT RAIN 50 48 93 E5 29.69R FOG  
THOMPSON MOCLDY 46 37 71 NE9 29.79R  
WINNIPEG MOCLDY 63 59 88 N3 29.58R  
LYNN LAKE CLOUDY 54 39 58 E8 29.74S  
CHURCHILL FLURRIES 28 27 93 SE14G22 30.03F WCI 17  
GILLAM PTCLDY 34 30 86 NE10G17 29.89S  

 
***SASKATCHEWAN***  
 
CITY SKY/WX TMP DP RH WIND PRES REMARKS  
ESTEVAN PTCLDY 63 48 59 NW10 29.69R  
KINDERSLEY PTCLDY 64 50 59 NE9 29.72R  
LLOYDMINSTER PTCLDY 63 50 63 SE6 29.70R  
PRINCE ALBERT MOCLDY 61 59 94 NE8 29.68R  
REGINA CLEAR 61 54 77 NW7 29.69R  
YORKTON PTCLDY 63 57 82 W8 29.63R  
 
CLICK HERE TO GO TO PREVIOUS BULLETINS.

The Nexlab ND Page
The Nexlab MN Page Main Text Page